Nantucket, MA

8:52 AM EST on December 03, 2016 (GMT -0500)
Nantucket Memorial

Weather History for KACK - October, 2010

Change the Weather History Date:

Friday, October 1, 2010

  Actual Average Record
Temperature  
Mean Temperature 66 °F -  
Max Temperature 75 °F 65 °F 77 °F (1950)
Min Temperature 60 °F 50 °F 40 °F (1965)
Cooling Degree Days 2    
Growing Degree Days 16 (Base 50)    
Moisture  
Dew Point 66 °F    
Average Humidity 92    
Maximum Humidity 100    
Minimum Humidity 82    
Precipitation  
Precipitation 0.79 in - - ()
Sea Level Pressure  
Sea Level Pressure 29.62 in    
Wind  
Wind Speed 17 mph (South)    
Max Wind Speed 29 mph    
Max Gust Speed 45 mph    
Visibility 4 miles    
Events Fog , Rain    
Averages and records for this station are not official NWS values.
T = Trace of Precipitation, MM = Missing Value Source: NWS Daily Summary

Daily Weather History Graph

Daily Weather History Graph

Search for Another Location

Airport or City:

Trip Planner

Search our weather history database for the weather conditions in past years. The results will help you decide how hot, cold, wet, or windy it might be!

Date:

Astronomy

Oct. 01, 2010 Rise Set
Actual Time 6:36 AM EDT 6:22 PM EDT
Civil Twilight 6:09 AM EDT 6:49 PM EDT
Nautical Twilight 5:37 AM EDT 7:21 PM EDT
Astronomical Twilight 5:04 AM EDT 7:53 PM EDT
Moon No Moon Rise 2:29 PM EDT (10/1)
Length of Visible Light 12h 40m
Length of Day
11h 45m
Last Quarter, 44% of the Moon is Illuminated
Oct 1
Last Quarter
Oct 7
New
Oct 14
First Quarter
Oct 22
Full
Oct 30
Last Quarter

Hourly Weather History & Observations

Time (EDT) Temp. Dew Point Humidity Pressure Visibility Wind Dir Wind Speed Gust Speed Precip Events Conditions
12:53 AM 70.0 °F 68.0 °F 93% 29.82 in 6.0 mi SSE 17.3 mph 25.3 mph N/A   Clear
1:53 AM 70.0 °F 68.0 °F 93% 29.80 in 5.0 mi SSE 16.1 mph 24.2 mph N/A   Clear
2:53 AM 69.1 °F 68.0 °F 96% 29.78 in 5.0 mi SSE 16.1 mph - N/A   Clear
3:53 AM 69.1 °F 68.0 °F 96% 29.76 in 5.0 mi SSE 17.3 mph - N/A   Clear
4:53 AM 70.0 °F 68.0 °F 93% 29.75 in 5.0 mi SSE 17.3 mph 26.5 mph N/A   Scattered Clouds
5:53 AM 69.1 °F 68.0 °F 96% 29.75 in 5.0 mi SSE 15.0 mph - N/A   Clear
6:36 AM 69.8 °F 66.2 °F 88% 29.74 in 3.0 mi SSE 13.8 mph - N/A   Scattered Clouds
6:53 AM 68.0 °F 66.9 °F 96% 29.75 in 3.0 mi SSE 13.8 mph - N/A   Overcast
7:53 AM 70.0 °F 68.0 °F 93% 29.73 in 4.0 mi SSE 15.0 mph - N/A   Clear
8:53 AM 71.1 °F 68.0 °F 90% 29.71 in 5.0 mi SSE 17.3 mph 24.2 mph N/A   Clear
9:53 AM 73.0 °F 68.0 °F 84% 29.70 in 6.0 mi SSE 18.4 mph - N/A   Haze
10:53 AM 73.0 °F 68.0 °F 84% 29.68 in 6.0 mi SSE 17.3 mph - N/A   Haze
11:53 AM 73.0 °F 68.0 °F 84% 29.66 in 6.0 mi SSE 19.6 mph 26.5 mph N/A   Haze
12:53 PM 73.9 °F 68.0 °F 82% 29.63 in 6.0 mi SSE 18.4 mph 26.5 mph N/A   Haze
1:53 PM 72.0 °F 68.0 °F 87% 29.61 in 5.0 mi South 18.4 mph - N/A   Clear
2:50 PM 71.6 °F 68.0 °F 88% 29.60 in 4.0 mi SSE 15.0 mph - 0.00 in   Overcast
2:53 PM 71.1 °F 68.0 °F 90% 29.62 in 4.0 mi South 16.1 mph - 0.00 in   Overcast
3:01 PM 69.8 °F 66.2 °F 88% 29.60 in 3.0 mi South 12.7 mph - 0.01 in Rain Light Rain
3:48 PM 71.6 °F 69.8 °F 94% 29.59 in 1.8 mi South 27.6 mph 34.5 mph 0.04 in Rain Rain
3:53 PM 71.1 °F 69.1 °F 93% 29.61 in 0.5 mi SSW 28.8 mph 44.9 mph 0.07 in Fog , Rain Light Rain
4:07 PM 69.8 °F 68.0 °F 94% 29.60 in 0.5 mi SSW 20.7 mph - 0.06 in Fog , Rain Rain
4:18 PM 69.8 °F 66.2 °F 88% 29.60 in 0.5 mi SSW 16.1 mph 27.6 mph 0.11 in Fog , Rain Rain
4:40 PM 69.8 °F 66.2 °F 88% 29.58 in 0.5 mi SW 18.4 mph 33.4 mph 0.31 in Fog , Rain Light Rain
4:46 PM 69.8 °F 68.0 °F 94% 29.58 in 2.5 mi SSW 12.7 mph 24.2 mph 0.32 in Rain Light Rain
4:53 PM 69.1 °F 68.0 °F 96% 29.58 in 3.0 mi South 10.4 mph - 0.32 in Rain Light Rain
5:01 PM 68.0 °F 68.0 °F 100% 29.57 in 2.5 mi South 9.2 mph - 0.00 in Rain Light Rain
5:19 PM 68.0 °F 66.2 °F 94% 29.57 in 2.5 mi South 11.5 mph - 0.04 in Rain Rain
5:53 PM 69.1 °F 68.0 °F 96% 29.57 in 2.5 mi South 12.7 mph - 0.16 in Rain Rain
6:05 PM 69.8 °F 66.2 °F 88% 29.57 in 3.0 mi South 11.5 mph - 0.01 in Rain Light Rain
6:07 PM 68.0 °F 66.2 °F 94% 29.57 in 2.5 mi South 11.5 mph - 0.01 in   Overcast
6:23 PM 68.0 °F 66.2 °F 94% 29.58 in 3.0 mi South 12.7 mph - 0.02 in Rain Light Rain
6:49 PM 68.0 °F 66.2 °F 94% 29.57 in 2.0 mi SSW 11.5 mph - 0.02 in   Mostly Cloudy
6:53 PM 68.0 °F 66.0 °F 93% 29.58 in 2.0 mi SSW 11.5 mph - 0.02 in   Mostly Cloudy
7:30 PM 66.2 °F 66.2 °F 100% 29.58 in 5.0 mi WSW 13.8 mph - 0.02 in Rain Light Rain
7:53 PM 66.9 °F 66.0 °F 97% 29.57 in 5.0 mi WSW 5.8 mph - 0.03 in Rain Light Rain
8:45 PM 66.2 °F 66.2 °F 100% 29.55 in 4.0 mi NW 15.0 mph - 0.11 in Rain Heavy Rain
8:53 PM 66.9 °F 66.0 °F 97% 29.55 in 5.0 mi NNW 18.4 mph - 0.13 in Rain Rain
9:01 PM 64.4 °F 62.6 °F 94% 29.54 in 7.0 mi North 20.7 mph 26.5 mph 0.01 in Rain Light Rain
9:09 PM 62.6 °F 60.8 °F 94% 29.54 in 10.0 mi North 23.0 mph 28.8 mph 0.01 in Rain Light Rain
9:24 PM 62.6 °F 60.8 °F 94% 29.56 in 10.0 mi North 18.4 mph 25.3 mph 0.01 in   Overcast
9:53 PM 62.1 °F 60.1 °F 93% 29.57 in 10.0 mi North 16.1 mph 24.2 mph 0.01 in   Overcast
10:53 PM 62.1 °F 60.1 °F 93% 29.55 in 4.0 mi North 23.0 mph 38.0 mph 0.03 in Rain Heavy Rain
11:14 PM 62.6 °F 60.8 °F 94% 29.55 in 10.0 mi North 20.7 mph 27.6 mph 0.01 in Rain Light Rain
11:24 PM 62.6 °F 59.0 °F 88% 29.56 in 10.0 mi North 24.2 mph 35.7 mph 0.01 in   Overcast
11:49 PM 60.8 °F 57.2 °F 88% 29.54 in 6.0 mi North 23.0 mph 34.5 mph 0.01 in Rain Rain
11:53 PM 61.0 °F 57.9 °F 90% 29.55 in 5.0 mi North 26.5 mph 34.5 mph 0.02 in Rain Light Rain